Showing default

KUIPER-00521, 68891

Orbit data source: Space-Track

KUIPER-00521, 68891 is a payload satellite owned by Kuiper Systems (US) in LEO that was launched on Tue, 28 Apr 2026 UTC via an ATLAS V 551 launch vehicle from the Air Force Eastern Test Range (AFETR). Payload-class satellites include a variety of spacecraft equipped with specific instruments for various scientific and technological missions. These include communications satellites like Starlink; space stations such as the ISS; scientific satellites like the Hubble; Earth observation satellites from companies like Planet Labs, Umbra, and HawkEye 360; GPS; miniature CubeSats for education and research; and military/defense satellites.

Loading next visibility...
Identifier
68891, 2026-095AD
Orbit
LEO
Country
Flag of USUS
Related business
Manufacturer
Kuiper Systems
Mission
Operational spacecraft
Bus & Motor
KUIPER, Unknown motor
Mass
~490 kg wet, ~490 kg dry
Launch date (UTC)
2026-04-28 (2 months ago)
Launch vehicle
ATLAS V 551
Launch site
Air Force Eastern Test Range (AFETR)
Object type
Payload
Rocket body
Debris
Shape & HBR
Unknown shape, 3.4 m
Radar Cross Section
Large (>1 m²)

Expand to show TLE details & history
Last TLE update: 10 hours ago

TLE from 10 hours ago
0 KUIPER-00521
1 68891U 26095AD  26171.43031019  .00013396  00000-0  35393-3 0  9990
2 68891  51.8838 226.3159 0001108 345.0025  15.0930 15.38741567  8232
Epoch: 2026-06-20T10:19Z
TLE epoch observation values (Epoch: 2026-06-20T10:19:38.800Z)
Latitude
0.00003°
Longitude
162.75921°
Altitude
449.864 km
Speed
7.644 km/s
True Right ascension
15h 05m 15s
True Declination
0° 00' 00"
Sunlit
Object was in full shadow at epoch
Visualization orbit readout
Latitude
Unknown
Longitude
Unknown
Altitude
Unknown
Speed
Unknown
Apparent Right ascension
Unknown
Apparent Declination
Unknown
Sunlit
N/A
Visualization observer readout
Local Sidereal Time
07:24:37
Azimuth
Unknown
Elevation
Unknown
Doppler factor
Unknown
Orbital elements
Apogee altitude
451.052 km
Perigee altitude
449.538 km
Semi-major axis
6,828.432 km
Eccentricity
0.00011
Inclination
51.8838°
RAAN
226.3159°
Arg. of periapsis
345.0025°
True anomaly
15.09631°
Mean anomaly
15.093°
Eccentric anomaly
15.09465°
Mean motion
3.84646 °/min
Orbital period
93.59 mins
BSTAR
0.00035393
Loading maneuver chart data...
Computing Atmospheric mass density...
Loading historical data...
Loading historical data...
Loading historical data...
Loading historical data...
Loading historical data...
Loading historical data...
Loading historical data...

Documentation

Showing up to 5 results
|